Tracking 29967 objects as of 5-Dec-2024
HD Live streaming from Space Station
objects crossing your sky now

STARLINK-11213

Track STARLINK-11213 now!
10-day predictions
STARLINK-11213 is classified as:


NORAD ID: 60309
Int'l Code: 2024-133J
Perigee: 366.1 km
Apogee: 367.6 km
Inclination: 53.2 °
Period: 91.7 minutes
Semi major axis: 6737 km
RCS: Unknown
Launch date: July 28, 2024
Source: United States (US)
Launch site: AIR FORCE WESTERN TEST RANGE (AFWTR)
Your satellite tracking list
Your tracking list is empty




NASA's NSSDC Master Catalog

Two Line Element Set (TLE):
1 60309U 24133J   24340.48310250 -.00001432  00000-0 -69600-5 0  9995
2 60309  53.1591 249.7094 0001117  88.4040 271.7106 15.69707116 21610
Source of the keplerian elements: AFSPC